Content
SEND FEEDBACK

Daily
Averages
Monthly
Summary
Canada

VANCOUVER, BRITISH COLUMBIA


Home > North America > Canada > British Columbia
Elevation: 7 feet     Latitude: 49 11N     Longitude: 123 10W

WEATHER
 
SELECT A DAY
Number of Records: 254,882;   Date Range: 5/15/97 - 12/18/14
 
SHARE

PRINT THIS DATA

[ ← Previous Day ]
WEATHER ALMANAC - FEBRUARY 22, 2013
[ Next Day → ]
[ °C ]   °F
Weather ElementAverageHighLow
Temperature41.9 °F46.4 °F (3:15 pm)39.2 °F (6:55 pm)
Dewpoint37.5 °F41 °F (12:55 am)32 °F (5:15 pm)
Humidity84.7 %100 % (12:55 am)61 % (5:15 pm)
Barometer29.74 in29.99 in (12:35 am)29.60 in (2:15 pm)
Wind Speed9.3 mph15 mph (11:35 am)
Wind Gust26.5 mph (6:35 am)
Weather ElementAverage
Visibility8.2 mi
Wind DirectionS (175.8 °)

Weather ElementTotal
Precipitation0.02 in
Heating Degree Days22.2 (Base 65)
Averaged from 64 records on February 22, 2013
WEATHER CONDITIONS BREAKOUT
WIND DIRECTION BREAKOUT
WEATHER BY HOUR - FEBRUARY 22, 2013
[ °C ]   °F
Local TimeTemperatureDewpointHumidityBarometerVisibilityWind DirectionWind SpeedGust SpeedPrecipitationEventsConditions
12:35 AM41.0 °F39.2 °F93 %29.99 in7.0 miSSW (210°)9.2 mphRainLight Rain
12:55 AM41.0 °F41.0 °F100 %29.99 in5.0 miSSW (200°)5.8 mphRainLight Rain
1:15 AM41.0 °F39.2 °F93 %29.98 in5.0 miSSW (210°)5.8 mphRainLight Rain
1:35 AM41.0 °F39.2 °F93 %29.98 in4.0 miCalm0.02 inRainRain
2:15 AM41.0 °F39.2 °F93 %29.97 in5.0 miCalmRainLight Rain
2:35 AM41.0 °F39.2 °F93 %29.95 in6.0 miCalmRainLight Rain
2:55 AM41.0 °F39.2 °F93 %29.95 in5.0 miCalmRainLight Rain
3:15 AM41.0 °F41.0 °F100 %29.93 in6.0 miCalmRainLight Rain
3:35 AM41.0 °F39.2 °F93 %29.92 in6.0 miSSE (150°)4.6 mphRainLight Rain
3:55 AM41.0 °F39.2 °F93 %29.91 in8.0 miSouth (170°)6.9 mphRainLight Rain
4:15 AM41.0 °F39.2 °F93 %29.89 in10.0 miSouth (170°)5.8 mphMostly Cloudy
4:35 AM41.0 °F39.2 °F93 %29.87 in10.0 miSouth (170°)8.1 mphMostly Cloudy
5:15 AM41.0 °F39.2 °F93 %29.83 in10.0 miSouth (190°)11.5 mph24.2 mphMostly Cloudy
5:35 AM42.8 °F39.2 °F87 %29.80 in10.0 miSouth (170°)8.1 mph20.7 mphMostly Cloudy
6:15 AM42.8 °F39.2 °F87 %29.78 in10.0 miSouth (170°)11.5 mph17.3 mphOvercast
6:35 AM42.8 °F39.2 °F87 %29.77 in10.0 miSouth (170°)8.1 mph26.5 mphOvercast
6:55 AM42.8 °F39.2 °F87 %29.76 in10.0 miSSE (160°)8.1 mphOvercast
7:15 AM42.8 °F39.2 °F87 %29.77 in10.0 miSSE (160°)5.8 mphOvercast
7:35 AM42.8 °F39.2 °F87 %29.75 in5.0 miSSE (160°)8.1 mphRainLight Rain
7:55 AM42.8 °F39.2 °F87 %29.75 in5.0 miSouth (180°)6.9 mphRainLight Rain
8:15 AM42.8 °F39.2 °F87 %29.72 in4.0 miSouth (170°)6.9 mph19.6 mphRainLight Rain
8:35 AM42.8 °F41.0 °F93 %29.71 in5.0 miSouth (170°)9.2 mph17.3 mphRainLight Rain
8:55 AM42.8 °F41.0 °F93 %29.71 in5.0 miSouth (180°)10.4 mph20.7 mphRainLight Rain
9:15 AM42.8 °F41.0 °F93 %29.70 in4.0 miSouth (170°)9.2 mphRainLight Rain
9:35 AM42.8 °F41.0 °F93 %29.68 in3.0 miSouth (170°)10.4 mph21.9 mphRainLight Rain
10:15 AM42.8 °F41.0 °F93 %29.66 in4.0 miSouth (170°)11.5 mph26.5 mphRainLight Rain
10:35 AM42.8 °F41.0 °F93 %29.66 in7.0 miSouth (180°)13.8 mph20.7 mphRainLight Rain
10:55 AM42.8 °F39.2 °F87 %29.64 in8.0 miSouth (190°)13.8 mph24.2 mphOvercast
11:15 AM42.8 °F39.2 °F87 %29.64 in8.0 miSouth (170°)10.4 mph20.7 mphRainLight Rain
11:35 AM42.8 °F39.2 °F87 %29.63 in9.0 miSouth (180°)15.0 mph21.9 mphOvercast
11:55 AM42.8 °F39.2 °F87 %29.63 in8.0 miSouth (170°)12.7 mph23.0 mphRainLight Rain
12:15 PM42.8 °F39.2 °F87 %29.62 in5.0 miSouth (180°)11.5 mph24.2 mphRainLight Rain
12:35 PM42.8 °F39.2 °F87 %29.63 in7.0 miSouth (180°)12.7 mph26.5 mphOvercast
12:55 PM42.8 °F39.2 °F87 %29.62 in3.0 miSouth (170°)13.8 mph24.2 mphOvercast
1:15 PM42.8 °F41.0 °F93 %29.61 in7.0 miSouth (180°)12.7 mph21.9 mphOvercast
1:35 PM42.8 °F41.0 °F93 %29.62 in10.0 miSSW (210°)12.7 mph24.2 mphOvercast
1:55 PM44.6 °F41.0 °F87 %29.61 in10.0 miSSW (200°)11.5 mph23.0 mphMostly Cloudy
2:15 PM44.6 °F41.0 °F87 %29.60 in10.0 miSSW (200°)12.7 mph20.7 mphMostly Cloudy
2:35 PM44.6 °F41.0 °F87 %29.61 in10.0 miSW (220°)13.8 mph18.4 mphMostly Cloudy
3:15 PM46.4 °F37.4 °F71 %29.62 in10.0 miSW (220°)12.7 mph18.4 mphScattered Clouds
3:35 PM46.4 °F37.4 °F71 %29.62 in10.0 miSouth (190°)10.4 mph16.1 mphScattered Clouds
4:15 PM46.4 °F37.4 °F71 %29.62 in9.0 miSSW (210°)8.1 mphPartly Cloudy
4:35 PM46.4 °F35.6 °F66 %29.63 in10.0 miSSW (200°)5.8 mphMostly Cloudy
4:55 PM46.4 °F33.8 °F62 %29.64 in10.0 miWSW (240°)10.4 mph17.3 mphMostly Cloudy
5:15 PM44.6 °F32.0 °F61 %29.63 in10.0 miSW (220°)10.4 mph18.4 mphClear
5:35 PM42.8 °F32.0 °F66 %29.64 in9.0 miWSW (240°)10.4 mph23.0 mphClear
5:55 PM42.8 °F32.0 °F66 %29.65 in10.0 miSW (220°)11.5 mph25.3 mphClear
6:15 PM41.0 °F32.0 °F70 %29.68 in10.0 miSW (230°)9.2 mph19.6 mphClear
6:35 PM41.0 °F33.8 °F76 %29.69 in10.0 miSW (230°)12.7 mph19.6 mphClear
6:55 PM39.2 °F33.8 °F81 %29.70 in10.0 miSSW (200°)11.5 mph18.4 mphClear
7:15 PM39.2 °F33.8 °F81 %29.70 in10.0 miSouth (190°)12.7 mph19.6 mphClear
7:35 PM39.2 °F33.8 °F81 %29.71 in10.0 miSSW (210°)9.2 mph17.3 mphClear
8:15 PM39.2 °F33.8 °F81 %29.71 in10.0 miSSW (200°)13.8 mph20.7 mphClear
8:35 PM39.2 °F35.6 °F87 %29.71 in10.0 miSSW (200°)11.5 mph21.9 mphClear
8:55 PM39.2 °F33.8 °F81 %29.72 in10.0 miSouth (190°)11.5 mph20.7 mphClear
9:15 PM39.2 °F32.0 °F75 %29.74 in10.0 miSouth (190°)9.2 mphClear
9:35 PM39.2 °F32.0 °F75 %29.75 in10.0 miSSW (200°)11.5 mph16.1 mphClear
9:55 PM39.2 °F33.8 °F81 %29.76 in10.0 miSSW (200°)10.4 mph17.3 mphClear
10:15 PM39.2 °F33.8 °F81 %29.77 in10.0 miSouth (190°)9.2 mphClear
10:35 PM39.2 °F33.8 °F81 %29.78 in10.0 miSSW (210°)8.1 mphClear
10:55 PM39.2 °F33.8 °F81 %29.79 in10.0 miSouth (190°)9.2 mphClear
11:15 PM39.2 °F33.8 °F81 %29.80 in10.0 miSSW (200°)11.5 mphClear
11:35 PM39.2 °F33.8 °F81 %29.81 in10.0 miSouth (190°)6.9 mphClear
11:55 PM39.2 °F33.8 °F81 %29.81 in10.0 miSouth (190°)10.4 mphClear
Hourly data recorded from CZBB, located miles away from Vancouver, British Columbia







STORIES FROM OUR PARTNERS